This is the latest recevied weather packets stored in our database for station/object KQ4LLM. If no packets are shown the sender has not sent any weather packets the latest 10 day(s).
| Time | Temp. | Humidity | Pressure | Rain* | Wind** | Luminosity | Snow |
|---|---|---|---|---|---|---|---|
| 1777580546 | 21.67° C | 60% | - | 0 mm | - | - | - |
| 1777580242 | 21.67° C | 61% | - | 0 mm | - | - | - |
| 1777579940 | 22.22° C | 60% | - | 0 mm | - | - | - |
| 1777579634 | 22.22° C | 62% | - | 0 mm | - | - | - |
| 1777579333 | 22.22° C | 62% | - | 0 mm | - | - | - |
| 1777579029 | 22.22° C | 61% | - | 0 mm | - | - | - |
| 1777578729 | 22.22° C | 67% | - | 0 mm | - | - | - |
| 1777578429 | 21.67° C | 66% | - | 0 mm | - | - | - |
| 1777578124 | 21.67° C | 63% | - | 0 mm | - | - | - |
| 1777577821 | 21.67° C | 61% | - | 0 mm | - | - | - |
| 1777577516 | 21.67° C | 62% | - | 0 mm | - | - | - |
| 1777577213 | 21.11° C | 63% | - | 0 mm | - | - | - |
| 1777576910 | 21.11° C | 67% | - | 0 mm | - | - | - |
| 1777576610 | 21.11° C | 66% | - | 0 mm | - | - | - |
| 1777576305 | 21.11° C | 64% | - | 0 mm | - | - | - |
| 1777576002 | 20.56° C | 64% | - | 0 mm | - | - | - |
| 1777575698 | 20.56° C | 70% | - | 0 mm | - | - | - |
| 1777575389 | 21.11° C | 70% | - | 0 mm | - | - | - |
| 1777575085 | 21.67° C | 69% | - | 0 mm | - | - | - |
| 1777574781 | 21.67° C | 66% | - | 0 mm | - | - | - |
| 1777574479 | 21.67° C | 64% | - | 0 mm | - | - | - |
| 1777574175 | 21.67° C | 66% | - | 0 mm | - | - | - |
| 1777573869 | 21.67° C | 67% | - | 0 mm | - | - | - |
| 1777573564 | 22.22° C | 67% | - | 0 mm | - | - | - |
| 1777573261 | 21.11° C | 68% | - | 0 mm | - | - | - |
* Rain latest hour (hover to see other rain measurements)
** Current wind speed in m/s (hover to see current wind gust speed)